Time,TemperatureF,DewpointF,PressureIn,WindDirection,WindDirectionDegrees,WindSpeedMPH,WindSpeedGustMPH,Humidity,HourlyPrecipIn,Conditions,Clouds,dailyrainin,SoftwareType,DateUTC
2013-02-27 00:02:00,38.0,34.0,28.91,ENE,69,7.0,11.0,85,0.00,,,0.51,,2013-02-27 05:02:00,
2013-02-27 00:12:00,38.0,34.0,28.91,ENE,69,7.0,11.0,85,0.00,,,0.51,,2013-02-27 05:12:00,
2013-02-27 00:22:00,38.0,33.0,28.91,ENE,68,10.0,14.0,83,0.00,,,0.51,,2013-02-27 05:22:00,
2013-02-27 00:32:00,38.0,33.0,28.91,ENE,70,7.0,11.0,81,0.00,,,0.51,,2013-02-27 05:32:00,
2013-02-27 00:42:00,38.0,33.0,28.91,ENE,70,7.0,11.0,81,0.00,,,0.51,,2013-02-27 05:42:00,
2013-02-27 00:52:00,38.0,32.0,28.91,ENE,68,7.0,11.0,80,0.00,,,0.51,,2013-02-27 05:52:00,
2013-02-27 01:02:00,38.0,32.0,28.91,NE,51,5.0,9.0,80,0.00,,,0.51,,2013-02-27 06:02:00,
2013-02-27 01:11:00,38.0,32.0,28.91,NE,51,5.0,9.0,80,0.00,,,0.51,,2013-02-27 06:11:00,
2013-02-27 01:22:00,38.0,32.0,28.91,NE,48,5.0,11.0,80,0.00,,,0.51,,2013-02-27 06:22:00,
2013-02-27 01:33:00,38.0,32.0,28.91,ENE,63,8.0,9.0,79,0.00,,,0.51,,2013-02-27 06:33:00,
2013-02-27 01:42:00,38.0,32.0,28.91,ENE,63,8.0,9.0,79,0.00,,,0.51,,2013-02-27 06:42:00,
2013-02-27 01:52:00,38.0,32.0,28.91,ENE,68,4.0,8.0,79,0.00,,,0.47,,2013-02-27 06:52:00,
2013-02-27 02:01:00,38.0,32.0,28.91,ENE,71,10.0,16.0,79,0.00,,,0.47,,2013-02-27 07:01:00,
2013-02-27 02:12:00,38.0,32.0,28.91,ENE,71,10.0,16.0,79,0.00,,,0.47,,2013-02-27 07:12:00,
2013-02-27 02:22:00,37.0,33.0,28.94,ENE,71,6.0,15.0,84,0.00,,,0.43,,2013-02-27 07:22:00,
2013-02-27 02:32:00,37.0,33.0,28.94,ENE,71,6.0,15.0,84,0.00,,,0.43,,2013-02-27 07:32:00,
2013-02-27 02:42:00,37.0,33.0,28.94,ENE,71,6.0,15.0,84,0.00,,,0.43,,2013-02-27 07:42:00,
2013-02-27 02:52:00,36.0,33.0,28.94,ENE,72,5.0,7.0,87,0.00,,,0.39,,2013-02-27 07:52:00,
2013-02-27 03:01:00,37.0,34.0,28.94,East,82,4.0,7.0,87,0.00,,,0.35,,2013-02-27 08:01:00,
2013-02-27 03:11:00,37.0,34.0,28.94,East,82,4.0,7.0,87,0.00,,,0.35,,2013-02-27 08:11:00,
2013-02-27 03:22:00,37.0,33.0,28.94,East,80,6.0,10.0,86,0.00,,,0.31,,2013-02-27 08:22:00,
2013-02-27 03:32:00,37.0,33.0,28.94,ENE,66,4.0,8.0,84,0.00,,,0.31,,2013-02-27 08:32:00,
2013-02-27 03:42:00,37.0,33.0,28.94,ENE,66,4.0,8.0,84,0.00,,,0.31,,2013-02-27 08:42:00,
2013-02-27 03:52:00,37.0,33.0,28.94,ENE,60,3.0,9.0,84,0.00,,,0.28,,2013-02-27 08:52:00,
2013-02-27 04:02:00,37.0,32.0,28.94,NNE,32,4.0,7.0,83,0.00,,,0.24,,2013-02-27 09:02:00,
2013-02-27 04:12:00,37.0,32.0,28.94,NNE,32,4.0,7.0,83,0.00,,,0.24,,2013-02-27 09:12:00,
2013-02-27 04:22:00,37.0,33.0,28.94,NE,49,4.0,7.0,85,0.00,,,0.20,,2013-02-27 09:22:00,
2013-02-27 04:32:00,37.0,33.0,28.94,NE,56,4.0,11.0,85,0.00,,,0.20,,2013-02-27 09:32:00,
2013-02-27 04:42:00,37.0,33.0,28.94,NE,56,4.0,11.0,85,0.00,,,0.20,,2013-02-27 09:42:00,
2013-02-27 04:52:00,36.0,32.0,28.94,NE,43,7.0,9.0,84,0.00,,,0.20,,2013-02-27 09:52:00,
2013-02-27 05:01:00,36.0,32.0,28.94,ENE,60,6.0,10.0,84,0.00,,,0.20,,2013-02-27 10:01:00,
2013-02-27 05:12:00,36.0,32.0,28.94,ENE,60,6.0,10.0,84,0.00,,,0.20,,2013-02-27 10:12:00,
2013-02-27 05:22:00,36.0,32.0,28.97,NE,51,7.0,9.0,85,0.00,,,0.20,,2013-02-27 10:22:00,
2013-02-27 05:32:00,36.0,32.0,28.97,NE,55,6.0,9.0,85,0.00,,,0.16,,2013-02-27 10:32:00,
2013-02-27 05:42:00,36.0,32.0,28.97,NE,55,6.0,9.0,85,0.00,,,0.16,,2013-02-27 10:42:00,
2013-02-27 05:53:00,36.0,32.0,28.97,NE,55,6.0,9.0,85,0.00,,,0.16,,2013-02-27 10:53:00,
2013-02-27 06:02:00,37.0,32.0,28.97,ENE,62,5.0,9.0,81,0.00,,,0.04,,2013-02-27 11:02:00,
2013-02-27 06:12:00,37.0,32.0,28.97,ENE,62,5.0,9.0,81,0.00,,,0.04,,2013-02-27 11:12:00,
2013-02-27 06:22:00,37.0,31.0,28.97,ENE,61,5.0,7.0,80,0.00,,,0.04,,2013-02-27 11:22:00,
2013-02-27 06:32:00,37.0,31.0,28.97,North,0,0.0,5.0,79,0.00,,,0.04,,2013-02-27 11:32:00,
2013-02-27 06:42:00,37.0,31.0,28.97,North,0,0.0,5.0,79,0.00,,,0.04,,2013-02-27 11:42:00,
2013-02-27 06:52:00,36.0,30.0,28.97,NE,41,4.0,6.0,79,0.00,,,0.00,,2013-02-27 11:52:00,
2013-02-27 07:02:00,36.0,30.0,28.97,NE,45,4.0,6.0,79,0.00,,,0.00,,2013-02-27 12:02:00,
2013-02-27 07:13:00,36.0,30.0,28.97,NE,45,4.0,6.0,79,0.00,,,0.00,,2013-02-27 12:13:00,
2013-02-27 07:22:00,37.0,31.0,28.97,North,0,0.0,4.0,78,0.00,,,0.00,,2013-02-27 12:22:00,
2013-02-27 07:33:00,36.0,29.0,28.97,North,0,0.0,0.0,77,0.00,,,0.00,,2013-02-27 12:33:00,
2013-02-27 07:42:00,36.0,29.0,28.97,North,0,0.0,0.0,77,0.00,,,0.00,,2013-02-27 12:42:00,
2013-02-27 07:53:00,37.0,31.0,28.97,North,0,0.0,3.0,78,0.00,,,0.00,,2013-02-27 12:53:00,
2013-02-27 08:02:00,37.0,31.0,29.00,ENE,58,4.0,7.0,79,0.00,,,0.00,,2013-02-27 13:02:00,
2013-02-27 08:12:00,37.0,31.0,29.00,ENE,58,4.0,7.0,79,0.00,,,0.00,,2013-02-27 13:12:00,
2013-02-27 08:22:00,37.0,30.0,29.00,ENE,76,4.0,7.0,77,0.00,,,0.00,,2013-02-27 13:22:00,
2013-02-27 08:32:00,37.0,30.0,29.00,ENE,69,5.0,9.0,75,0.00,,,0.00,,2013-02-27 13:32:00,
2013-02-27 08:42:00,37.0,30.0,29.00,ENE,69,5.0,9.0,75,0.00,,,0.00,,2013-02-27 13:42:00,
2013-02-27 08:52:00,38.0,30.0,29.03,East,80,4.0,9.0,72,0.00,,,0.00,,2013-02-27 13:52:00,
2013-02-27 09:02:00,38.0,30.0,29.03,ENE,77,6.0,9.0,72,0.00,,,0.00,,2013-02-27 14:02:00,
2013-02-27 09:12:00,38.0,30.0,29.03,ENE,77,6.0,9.0,72,0.00,,,0.00,,2013-02-27 14:12:00,
2013-02-27 09:22:00,38.0,30.0,29.03,ENE,77,6.0,9.0,72,0.00,,,0.00,,2013-02-27 14:22:00,
2013-02-27 09:32:00,39.0,30.0,29.03,ENE,75,9.0,12.0,71,0.00,,,0.00,,2013-02-27 14:32:00,
2013-02-27 09:42:00,39.0,30.0,29.03,ENE,75,9.0,12.0,71,0.00,,,0.00,,2013-02-27 14:42:00,
2013-02-27 09:53:00,39.0,30.0,29.03,East,80,7.0,9.0,69,0.00,,,0.00,,2013-02-27 14:53:00,
2013-02-27 10:02:00,39.0,30.0,29.03,East,80,7.0,9.0,69,0.00,,,0.00,,2013-02-27 15:02:00,
2013-02-27 10:12:00,39.0,30.0,29.03,East,80,7.0,9.0,69,0.00,,,0.00,,2013-02-27 15:12:00,
2013-02-27 10:22:00,39.0,30.0,29.03,East,80,7.0,9.0,69,0.00,,,0.00,,2013-02-27 15:22:00,
2013-02-27 10:32:00,41.0,30.0,29.06,ENE,75,7.0,11.0,65,0.00,,,0.00,,2013-02-27 15:32:00,
2013-02-27 10:42:00,41.0,30.0,29.06,ENE,75,7.0,11.0,65,0.00,,,0.00,,2013-02-27 15:42:00,
2013-02-27 10:52:00,41.0,30.0,29.06,ENE,76,5.0,10.0,65,0.00,,,0.00,,2013-02-27 15:52:00,
2013-02-27 11:02:00,42.0,30.0,29.03,ENE,66,9.0,13.0,61,0.00,,,0.00,,2013-02-27 16:02:00,
2013-02-27 11:12:00,42.0,30.0,29.03,ENE,66,9.0,13.0,61,0.00,,,0.00,,2013-02-27 16:12:00,
2013-02-27 11:22:00,43.0,30.0,29.03,ENE,74,7.0,10.0,60,0.00,,,0.00,,2013-02-27 16:22:00,
2013-02-27 11:32:00,44.0,30.0,29.03,East,80,6.0,9.0,57,0.00,,,0.00,,2013-02-27 16:32:00,
2013-02-27 11:42:00,44.0,30.0,29.03,East,80,6.0,9.0,57,0.00,,,0.00,,2013-02-27 16:42:00,
2013-02-27 11:52:00,43.0,29.0,29.03,ENE,69,5.0,10.0,58,0.00,,,0.00,,2013-02-27 16:52:00,
2013-02-27 12:02:00,43.0,29.0,29.03,ENE,69,5.0,10.0,58,0.00,,,0.00,,2013-02-27 17:02:00,
2013-02-27 12:11:00,43.0,29.0,29.03,ENE,69,5.0,10.0,58,0.00,,,0.00,,2013-02-27 17:11:00,
2013-02-27 12:21:00,44.0,29.0,29.03,ENE,64,5.0,10.0,56,0.00,,,0.00,,2013-02-27 17:21:00,
2013-02-27 12:32:00,45.0,29.0,29.03,ENE,63,7.0,11.0,54,0.00,,,0.00,,2013-02-27 17:32:00,
2013-02-27 12:42:00,45.0,29.0,29.03,ENE,63,7.0,11.0,54,0.00,,,0.00,,2013-02-27 17:42:00,
2013-02-27 12:52:00,45.0,29.0,29.03,ENE,64,8.0,11.0,54,0.00,,,0.00,,2013-02-27 17:52:00,
2013-02-27 13:02:00,47.0,31.0,29.03,East,79,5.0,12.0,53,0.00,,,0.00,,2013-02-27 18:02:00,
2013-02-27 13:11:00,47.0,31.0,29.03,East,79,5.0,12.0,53,0.00,,,0.00,,2013-02-27 18:11:00,
2013-02-27 13:22:00,47.0,30.0,29.00,ENE,71,7.0,10.0,52,0.00,,,0.00,,2013-02-27 18:22:00,
2013-02-27 13:32:00,49.0,31.0,29.00,ENE,65,5.0,11.0,50,0.00,,,0.00,,2013-02-27 18:32:00,
2013-02-27 13:42:00,49.0,31.0,29.00,ENE,65,5.0,11.0,50,0.00,,,0.00,,2013-02-27 18:42:00,
2013-02-27 13:52:00,50.0,31.0,29.00,ENE,76,7.0,11.0,48,0.00,,,0.00,,2013-02-27 18:52:00,
2013-02-27 14:02:00,51.0,32.0,29.00,ENE,57,8.0,10.0,48,0.00,,,0.00,,2013-02-27 19:02:00,
2013-02-27 14:22:00,50.0,31.0,29.00,North,10,4.0,7.0,47,0.00,,,0.00,,2013-02-27 19:22:00,
2013-02-27 14:32:00,53.0,33.0,28.97,ENE,75,5.0,11.0,47,0.00,,,0.00,,2013-02-27 19:32:00,
2013-02-27 14:52:00,52.0,32.0,28.97,ENE,72,9.0,12.0,46,0.00,,,0.00,,2013-02-27 19:52:00,
2013-02-27 15:02:00,52.0,32.0,28.97,ENE,72,9.0,12.0,46,0.00,,,0.00,,2013-02-27 20:02:00,
2013-02-27 15:12:00,52.0,32.0,28.97,ENE,72,9.0,12.0,46,0.00,,,0.00,,2013-02-27 20:12:00,
2013-02-27 15:22:00,54.0,32.0,28.97,ENE,72,8.0,11.0,43,0.00,,,0.00,,2013-02-27 20:22:00,
2013-02-27 15:32:00,54.0,31.0,28.97,ENE,71,6.0,12.0,42,0.00,,,0.00,,2013-02-27 20:32:00,
2013-02-27 15:42:00,54.0,31.0,28.97,ENE,71,6.0,12.0,42,0.00,,,0.00,,2013-02-27 20:42:00,
2013-02-27 15:52:00,53.0,31.0,28.94,NE,44,8.0,11.0,43,0.00,,,0.00,,2013-02-27 20:52:00,
2013-02-27 16:02:00,53.0,31.0,28.94,ENE,58,8.0,13.0,42,0.00,,,0.00,,2013-02-27 21:02:00,
2013-02-27 16:11:00,53.0,31.0,28.94,ENE,58,8.0,13.0,42,0.00,,,0.00,,2013-02-27 21:11:00,
2013-02-27 16:22:00,55.0,32.0,28.94,ENE,77,8.0,12.0,42,0.00,,,0.00,,2013-02-27 21:22:00,
2013-02-27 16:32:00,55.0,32.0,28.94,ENE,69,8.0,13.0,41,0.00,,,0.00,,2013-02-27 21:32:00,
2013-02-27 16:42:00,55.0,32.0,28.94,ENE,69,8.0,13.0,41,0.00,,,0.00,,2013-02-27 21:42:00,
2013-02-27 16:52:00,53.0,31.0,28.94,ENE,76,5.0,11.0,42,0.00,,,0.00,,2013-02-27 21:52:00,
2013-02-27 17:02:00,54.0,30.0,28.94,ENE,67,10.0,15.0,40,0.00,,,0.00,,2013-02-27 22:02:00,
2013-02-27 17:11:00,54.0,30.0,28.94,ENE,67,10.0,15.0,40,0.00,,,0.00,,2013-02-27 22:11:00,
2013-02-27 17:22:00,52.0,29.0,28.94,ENE,69,8.0,15.0,41,0.00,,,0.00,,2013-02-27 22:22:00,
2013-02-27 17:32:00,51.0,29.0,28.94,ENE,78,6.0,11.0,43,0.00,,,0.00,,2013-02-27 22:32:00,
2013-02-27 17:42:00,51.0,29.0,28.94,ENE,78,6.0,11.0,43,0.00,,,0.00,,2013-02-27 22:42:00,
2013-02-27 17:52:00,51.0,29.0,28.94,ENE,72,9.0,13.0,43,0.00,,,0.00,,2013-02-27 22:52:00,
2013-02-27 18:02:00,50.0,29.0,28.94,ENE,70,6.0,11.0,44,0.00,,,0.00,,2013-02-27 23:02:00,
2013-02-27 18:11:00,50.0,29.0,28.94,ENE,70,6.0,11.0,44,0.00,,,0.00,,2013-02-27 23:11:00,
2013-02-27 18:22:00,50.0,28.0,28.94,East,82,8.0,15.0,42,0.00,,,0.00,,2013-02-27 23:22:00,
2013-02-27 18:32:00,50.0,28.0,28.97,East,86,5.0,8.0,43,0.00,,,0.00,,2013-02-27 23:32:00,
2013-02-27 18:42:00,50.0,28.0,28.97,East,86,5.0,8.0,43,0.00,,,0.00,,2013-02-27 23:42:00,
2013-02-27 18:53:00,50.0,28.0,28.97,East,86,5.0,8.0,43,0.00,,,0.00,,2013-02-27 23:53:00,
2013-02-27 19:02:00,49.0,28.0,28.97,East,92,6.0,9.0,44,0.00,,,0.00,,2013-02-28 00:02:00,
2013-02-27 19:12:00,49.0,28.0,28.97,East,92,6.0,9.0,44,0.00,,,0.00,,2013-02-28 00:12:00,
2013-02-27 19:22:00,48.0,28.0,28.97,North,0,0.0,8.0,46,0.00,,,0.00,,2013-02-28 00:22:00,
2013-02-27 19:32:00,47.0,28.0,28.97,North,0,0.0,6.0,48,0.00,,,0.00,,2013-02-28 00:32:00,
2013-02-27 19:42:00,47.0,28.0,28.97,North,0,0.0,6.0,48,0.00,,,0.00,,2013-02-28 00:42:00,
2013-02-27 19:52:00,46.0,29.0,29.00,ESE,118,4.0,7.0,51,0.00,,,0.00,,2013-02-28 00:52:00,
2013-02-27 20:01:00,46.0,30.0,29.00,East,100,5.0,8.0,54,0.00,,,0.00,,2013-02-28 01:01:00,
2013-02-27 20:11:00,46.0,30.0,29.00,East,100,5.0,8.0,54,0.00,,,0.00,,2013-02-28 01:11:00,
2013-02-27 20:22:00,45.0,30.0,29.00,ESE,105,4.0,8.0,56,0.00,,,0.00,,2013-02-28 01:22:00,
2013-02-27 20:32:00,45.0,30.0,29.00,East,89,5.0,7.0,55,0.00,,,0.00,,2013-02-28 01:32:00,
2013-02-27 20:42:00,45.0,30.0,29.00,East,89,5.0,7.0,55,0.00,,,0.00,,2013-02-28 01:42:00,
2013-02-27 20:52:00,44.0,29.0,29.00,East,95,3.0,6.0,56,0.00,,,0.00,,2013-02-28 01:52:00,
2013-02-27 21:01:00,44.0,29.0,29.00,East,95,3.0,6.0,56,0.00,,,0.00,,2013-02-28 02:01:00,
2013-02-27 21:11:00,44.0,29.0,29.00,East,95,3.0,6.0,56,0.00,,,0.00,,2013-02-28 02:11:00,
2013-02-27 21:22:00,44.0,29.0,29.00,North,0,0.0,8.0,56,0.00,,,0.00,,2013-02-28 02:22:00,
2013-02-27 21:32:00,41.0,29.0,29.03,North,0,0.0,6.0,61,0.00,,,0.00,,2013-02-28 02:32:00,
2013-02-27 21:42:00,41.0,29.0,29.03,North,0,0.0,6.0,61,0.00,,,0.00,,2013-02-28 02:42:00,
2013-02-27 21:52:00,41.0,29.0,29.03,North,0,0.0,6.0,61,0.00,,,0.00,,2013-02-28 02:52:00,
2013-02-27 22:02:00,39.0,30.0,29.03,North,0,0.0,4.0,69,0.00,,,0.00,,2013-02-28 03:02:00,
2013-02-27 22:11:00,39.0,30.0,29.03,North,0,0.0,4.0,69,0.00,,,0.00,,2013-02-28 03:11:00,
2013-02-27 22:22:00,39.0,30.0,29.03,North,0,0.0,0.0,71,0.00,,,0.00,,2013-02-28 03:22:00,
2013-02-27 22:32:00,39.0,31.0,29.06,SE,132,4.0,5.0,72,0.00,,,0.00,,2013-02-28 03:32:00,
2013-02-27 22:42:00,39.0,31.0,29.06,SE,132,4.0,5.0,72,0.00,,,0.00,,2013-02-28 03:42:00,
2013-02-27 22:52:00,39.0,27.0,29.06,East,100,4.0,11.0,63,0.00,,,0.00,,2013-02-28 03:52:00,
2013-02-27 23:02:00,38.0,27.0,29.06,East,93,6.0,9.0,63,0.00,,,0.00,,2013-02-28 04:02:00,
2013-02-27 23:11:00,38.0,27.0,29.06,East,93,6.0,9.0,63,0.00,,,0.00,,2013-02-28 04:11:00,
2013-02-27 23:22:00,38.0,26.0,29.06,ESE,106,4.0,7.0,61,0.00,,,0.00,,2013-02-28 04:22:00,
2013-02-27 23:32:00,38.0,26.0,29.06,East,87,4.0,7.0,61,0.00,,,0.00,,2013-02-28 04:32:00,
2013-02-27 23:42:00,38.0,26.0,29.06,East,87,4.0,7.0,61,0.00,,,0.00,,2013-02-28 04:42:00,
2013-02-27 23:52:00,38.0,26.0,29.03,East,90,4.0,8.0,61,0.00,,,0.00,,2013-02-28 04:52:00,